Detroit, MI

1:45 PM EST on January 17, 2018 (GMT -0500)
Detroit City

Weather History for KDET - November, 2013

Change the Weather History Date:

Saturday, November 16, 2013

  Actual Average Record
Temperature  
Mean Temperature 46 °F -  
Max Temperature 55 °F 46 °F 69 °F (1953)
Min Temperature 37 °F 32 °F 21 °F (1955)
Degree Days  
Heating Degree Days 19    
Moisture  
Dew Point 42 °F    
Average Humidity 78    
Maximum Humidity 89    
Minimum Humidity 60    
Precipitation  
Precipitation 0.00 in - - ()
Sea Level Pressure  
Sea Level Pressure 30.03 in    
Wind  
Wind Speed 8 mph (South)    
Max Wind Speed 17 mph    
Max Gust Speed 23 mph    
Visibility 10 miles    
Events      
Averages and records for this station are not official NWS values.
T = Trace of Precipitation, MM = Missing Value Source: NWS Daily Summary

Daily Weather History Graph

Daily Weather History Graph

Search for Another Location

Airport or City:

Trip Planner

Search our weather history database for the weather conditions in past years. The results will help you decide how hot, cold, wet, or windy it might be!

Date:

Astronomy

Nov. 16, 2013 Rise Set
Actual Time 7:24 AM EST 5:08 PM EST
Civil Twilight 6:54 AM EST 5:39 PM EST
Nautical Twilight 6:20 AM EST 6:13 PM EST
Astronomical Twilight 5:46 AM EST 6:46 PM EST
Moon 4:44 PM EST (11/16) 6:18 AM EST (11/16)
Length of Visible Light 10h 45m
Length of Day
9h 44m
Waxing Gibbous, 99% of the Moon is Illuminated
Nov 16
Waxing Gibbous
Nov 17
Full
Nov 25
Last Quarter
Dec 2
New
Dec 9
First Quarter

Hourly Weather History & Observations

Time (EST) Temp. Windchill Dew Point Humidity Pressure Visibility Wind Dir Wind Speed Gust Speed Precip Events Conditions
12:53 AM 44.1 °F 39.0 °F 30.9 °F 60% 30.10 in 10.0 mi SSW 9.2 mph - N/A   Overcast
1:53 AM 41.0 °F 38.0 °F 30.9 °F 67% 30.09 in 10.0 mi South 4.6 mph - N/A   Clear
2:53 AM 39.9 °F 36.7 °F 30.9 °F 70% 30.10 in 10.0 mi South 4.6 mph - N/A   Clear
3:53 AM 39.9 °F 36.7 °F 32.0 °F 73% 30.10 in 10.0 mi South 4.6 mph - N/A   Clear
4:53 AM 39.0 °F 34.0 °F 34.0 °F 82% 30.10 in 10.0 mi South 6.9 mph - N/A   Clear
5:53 AM 37.0 °F - 33.1 °F 86% 30.12 in 10.0 mi Calm Calm - N/A   Clear
6:53 AM 37.9 °F 35.5 °F 35.1 °F 89% 30.14 in 7.0 mi South 3.5 mph - N/A   Clear
7:53 AM 39.9 °F 36.7 °F 37.0 °F 89% 30.13 in 8.0 mi SE 4.6 mph - N/A   Overcast
8:11 AM 41.0 °F 39.0 °F 37.4 °F 87% 30.12 in 9.0 mi SE 3.5 mph - N/A   Overcast
8:53 AM 42.1 °F 40.2 °F 37.9 °F 85% 30.13 in 9.0 mi SE 3.5 mph - N/A   Overcast
9:06 AM 42.8 °F 41.1 °F 37.4 °F 81% 30.11 in 9.0 mi SE 3.5 mph - N/A   Overcast
9:53 AM 45.0 °F 41.2 °F 39.9 °F 82% 30.12 in 10.0 mi South 6.9 mph - N/A   Overcast
10:53 AM 48.0 °F - 42.1 °F 80% 30.10 in 10.0 mi SSE 10.4 mph - N/A   Overcast
11:53 AM 48.9 °F - 43.0 °F 80% 30.09 in 10.0 mi South 9.2 mph - N/A   Overcast
12:04 PM 50.0 °F - 42.8 °F 76% 30.07 in 10.0 mi South 6.9 mph - N/A   Overcast
12:25 PM 50.0 °F - 44.6 °F 82% 30.05 in 10.0 mi South 10.4 mph - N/A   Overcast
12:39 PM 50.0 °F - 44.6 °F 82% 30.04 in 10.0 mi South 6.9 mph - N/A   Overcast
12:53 PM 51.1 °F - 44.1 °F 77% 30.04 in 10.0 mi South 8.1 mph - N/A   Overcast
1:53 PM 52.0 °F - 45.0 °F 77% 30.01 in 10.0 mi SSE 11.5 mph - N/A   Partly Cloudy
2:53 PM 54.0 °F - 46.0 °F 75% 29.97 in 10.0 mi SSE 11.5 mph - N/A   Clear
3:53 PM 55.9 °F - 46.0 °F 69% 29.97 in 10.0 mi South 10.4 mph - N/A   Mostly Cloudy
4:53 PM 55.9 °F - 46.9 °F 72% 29.96 in 10.0 mi South 15.0 mph 23.0 mph N/A   Mostly Cloudy
5:53 PM 54.0 °F - 46.0 °F 75% 29.96 in 10.0 mi South 12.7 mph 20.7 mph N/A   Mostly Cloudy
6:53 PM 53.1 °F - 46.9 °F 80% 29.95 in 10.0 mi South 12.7 mph - N/A   Overcast
7:21 PM 53.6 °F - 46.4 °F 77% 29.94 in 10.0 mi South 12.7 mph - N/A   Overcast
7:53 PM 54.0 °F - 48.0 °F 80% 29.94 in 10.0 mi South 17.3 mph 23.0 mph N/A   Overcast
8:53 PM 54.0 °F - 48.0 °F 80% 29.91 in 10.0 mi South 16.1 mph 21.9 mph N/A   Mostly Cloudy
9:53 PM 55.0 °F - 48.0 °F 77% 29.88 in 10.0 mi South 16.1 mph 23.0 mph N/A   Overcast
10:29 PM 55.4 °F - 48.2 °F 77% 29.85 in 10.0 mi South 12.7 mph - N/A   Overcast
10:53 PM 55.9 °F - 48.9 °F 77% 29.85 in 10.0 mi South 15.0 mph 19.6 mph N/A   Overcast
11:53 PM 55.9 °F - 48.9 °F 77% 29.85 in 10.0 mi South 12.7 mph - N/A   Overcast